This demonstration page uses our WeatherBlox Daily Observations layout. Learn more.

Left ArrowRight Arrow

38.20091, -84.87328

Hourly Observations for July 21, 2018

Temp ( °F °C ) Dew Point ( °F °C ) Humidity (%) Winds ( mph kmh ) Pressure ( in mb ) Visibility ( mi km ) Precip ( " mm )
12:10 am 00:10 Partly Cloudy with Thunderstorms 67 19.4 63 17.2 87 87 WSW 8 13 29.83 1010 10 16 0.00 0.00
12:25 am 00:25 Mostly Cloudy with Nearby Thunderstorms 67 19.4 64 17.8 91 91 SW 12 19 29.83 1010 10 16 0.00 0.03
12:53 am 00:53 Cloudy with Nearby Thunderstorms 67 19.4 64 17.8 91 91 SSE 7 11 29.80 1009 10 16 0.01 0.25
1:11 am 01:11 Partly Cloudy 66 18.9 63 17.2 90 90 SSE 5 7 29.80 1009 10 16 0.01 0.25
1:53 am 01:53 Clear 65 18.3 63 17.2 93 93 SSE 6 9 29.79 1009 10 16 0.01 0.25
2:53 am 02:53 Clear 66 18.9 62 16.7 87 87 SW 8 13 29.78 1008 10 16 0.00 0.00
3:53 am 03:53 Mostly Clear 66 18.9 63 17.2 90 90 SW 9 15 29.76 1008 10 16 0.00 0.00
4:53 am 04:53 Clear 67 19.4 62 16.7 84 84 SW 9 15 29.75 1008 10 16 0.00 0.00
5:53 am 05:53 Clear 66 18.9 62 16.7 87 87 SSW 9 15 29.76 1008 10 16 0.00 0.00
6:53 am 06:53 Sunny 64 17.8 62 16.7 93 93 SW 7 11 29.76 1008 10 16 0.00 0.00
7:53 am 07:53 Sunny 67 19.4 63 17.2 87 87 SW 9 15 29.78 1009 10 16 0.00 0.00
8:53 am 08:53 Sunny 70 21.1 65 18.3 84 84 SW 9 15 29.79 1009 10 16 0.00 0.00
9:53 am 09:53 Partly Cloudy 73 22.8 67 19.4 81 81 WSW 7 11 29.80 1009 10 16 0.00 0.00
10:53 am 10:53 Partly Cloudy 75 23.9 67 19.4 76 76 W 9 15 29.78 1009 10 16 0.00 0.00
11:53 am 11:53 Mostly Cloudy 78 25.6 66 18.9 67 67 WSW 9 15 29.78 1008 10 16 0.00 0.00
12:03 pm 12:03 Mostly Cloudy 79 26.1 67 19.4 67 67 WSW 9 15 29.77 1008 10 16 0.00 0.00
12:53 pm 12:53 Mostly Cloudy 78 25.6 66 18.9 67 67 WSW 9 15 29.77 1008 10 16 0.00 0.00
1:53 pm 13:53 Mostly Cloudy 78 25.6 66 18.9 67 67 WSW 6 9 29.75 1008 10 16 0.00 0.00
2:53 pm 14:53 Mostly Sunny 80 26.7 66 18.9 62 62 W 9 15 29.73 1007 10 16 0.00 0.00
3:53 pm 15:53 Mostly Sunny 82 27.8 66 18.9 58 58 W 8 13 29.71 1006 10 16 0.00 0.00
4:53 pm 16:53 Mostly Cloudy 79 26.1 63 17.2 58 58 W 14 22 29.72 1006 10 16 0.00 0.00
5:53 pm 17:53 Cloudy with Light Rain 74 23.3 66 18.9 76 76 W 5 7 29.72 1007 9 14 0.00 0.03
6:53 pm 18:53 Cloudy 76 24.4 65 18.3 69 69 W 7 11 29.72 1007 10 16 0.00 0.03
7:53 pm 19:53 Mostly Cloudy with Light Rain 73 22.8 67 19.4 81 81 WNW 10 17 29.73 1007 7 11 0.00 0.03
8:53 pm 20:53 Cloudy 71 21.7 68 20 90 90 WSW 7 11 29.73 1007 10 16 0.00 0.03
9:23 pm 21:23 Cloudy 70 21.1 68 20 93 93 WSW 7 11 29.71 1006 10 16 0.00 0.00
9:35 pm 21:35 Cloudy 70 21.1 68 20 93 93 SW 7 11 29.71 1006 10 16 0.00 0.00
9:53 pm 21:53 Cloudy 71 21.7 68 20 90 90 WSW 6 9 29.73 1007 10 16 0.00 0.00
10:19 pm 22:19 Cloudy 71 21.7 68 20 90 90 WSW 6 9 29.74 1007 10 16 0.00 0.00
10:32 pm 22:32 Cloudy 71 21.7 68 20 90 90 WSW 7 11 29.74 1007 10 16 0.00 0.00
10:53 pm 22:53 Cloudy 71 21.7 68 20 90 90 WSW 5 7 29.73 1007 10 16 0.00 0.00
11:53 pm 23:53 Cloudy 71 21.7 68 20 90 90 WSW 9 15 29.72 1006 10 16 0.00 0.00

Powered by AerisWeather